Weather in Poselok Chelyuskintsev

Russia / Tyumen Oblast     55°45′44″N   69°37′46″E
temp.,
°C
wind,
m/s
gust,
m/s
humid.,
%
clouds,
%
prec.,
mm/h
press.,
hPa
HPBL,
m
17 april, sat
sat1723:00+2ne49680 0.0 1026322
02:000ne37815 0.0 1027181
05:00−1ene24855 0.0 1028131
08:00+1se22675 0.0 1028408
11:00+5wsw33515 0.0 10271170
14:00+7wsw46445 0.0 10241686
17:00+8w584351 0.0 10221863
20:00+5wsw366252 0.0 102097
18 april, sun
sun1823:00+4sw410705 0.0 1018204
02:00+2wsw4107620 0.0 1015184
05:00+3wsw5138086 0.0 1013281
08:00+5w71471100 0.0 1011789
11:00+7wnw91360100 0.0 10101633
14:00+1n101356100 0.5 10161335
17:00−1n91250100 0.5 10211706
20:00−3nne711475 0.0 10241433
19 april, mon
mon1923:00−5nne694976 0.0 10271395
02:00−6nne6848100 0.0 10301342
05:00−7nne67476 0.0 10321133
08:00−6n5741100 0.0 10331424
11:00−4n6732100 0.0 10331796
14:00−2n6728100 0.0 10332183
17:00−2n6730100 0.0 10332201
20:00−4n354316 0.0 1034140
20 april, tue
tue2023:00−4nne24495 0.0 1034112
02:00−5n22482 0.0 103439
05:00−5wnw22500 0.0 103534
08:00−3wnw35355 0.0 10341170
11:00+1wnw562823 0.0 10331472
14:00+4wnw673162 0.0 10301734
17:00+5wnw6104289 0.0 10281813
20:00+2w385992 0.0 1028161
21 april, wed
wed2123:00+1w5126786 0.0 1027250
02:00+2wnw5127180 0.0 1026303
05:000wnw5128178 0.0 1026261
08:00+4nw7137165 0.0 1026610
11:00+6n81267100 0.0 10271372
14:00+6n6962100 0.0 10291475
17:00+5n5860100 0.0 10311433
20:00+4nne3562100 0.0 1034163